When you browse on this site, cookies collect data to enhance your experience and personalize the content and advertising you see.
Visit our Privacy Policy to learn more. By continuing to use the site, you agree to this use of cookies and data.
  • In United Kingdom
  • List of Countries
  • For 7 days
  • Water Temperature
  • Weather Map
  • Weather Widgets
  • user-avatar
    Login

    Hourly Weather Durres

    Today, 25 January, Saturday

    Time Temperature Precipitation Wind Pressure Humidity
    00:00 +7°C° 0 mm 5 mps 770 mmHg 70%
    01:00 +7°C° 0 mm 4 mps 769 mmHg 71%
    02:00 +7°C° 0 mm 4 mps 769 mmHg 71%
    03:00 +7°C° 0 mm 4 mps 769 mmHg 71%
    04:00 +7°C° 0 mm 4 mps 769 mmHg 71%
    05:00 +7°C° 0.1 mm 5 mps 768 mmHg 71%
    06:00 +7°C° 0.1 mm 5 mps 768 mmHg 71%
    07:00 +7°C° 0.1 mm 5 mps 768 mmHg 71%
    08:00 +8°C° 0.2 mm 5 mps 768 mmHg 70%
    09:00 +10°C° 0.2 mm 5 mps 768 mmHg 69%
    10:00 +12°C° 0.2 mm 4 mps 769 mmHg 68%
    11:00 +12°C° 0.2 mm 5 mps 768 mmHg 70%
    12:00 +12°C° 0.2 mm 5 mps 768 mmHg 71%
    13:00 +11°C° 0.2 mm 6 mps 767 mmHg 72%
    14:00 +11°C° 0.1 mm 6 mps 767 mmHg 73%
    15:00 +11°C° 0.1 mm 7 mps 767 mmHg 74%
    16:00 +11°C° 0.1 mm 7 mps 767 mmHg 75%
    17:00 +11°C° 0.2 mm 7 mps 767 mmHg 78%
    18:00 +10°C° 0.2 mm 7 mps 767 mmHg 80%
    19:00 +10°C° 0.2 mm 8 mps 767 mmHg 83%
    20:00 +10°C° 0.2 mm 7 mps 767 mmHg 82%
    21:00 +10°C° 0.2 mm 7 mps 767 mmHg 82%
    22:00 +10°C° 0.2 mm 7 mps 767 mmHg 81%
    23:00 +10°C° 0.2 mm 7 mps 767 mmHg 80%

    Tomorrow, 26 January, Sunday

    Time Temperature Precipitation Wind Pressure Humidity
    00:00 +10°C° 0.2 mm 7 mps 767 mmHg 79%
    01:00 +9°C° 0.2 mm 7 mps 767 mmHg 79%
    02:00 +9°C° 0.2 mm 7 mps 766 mmHg 78%
    03:00 +9°C° 0.2 mm 7 mps 766 mmHg 78%
    04:00 +9°C° 0.2 mm 6 mps 765 mmHg 78%
    05:00 +9°C° 0.1 mm 6 mps 765 mmHg 77%
    06:00 +9°C° 0.1 mm 6 mps 765 mmHg 77%
    07:00 +9°C° 0.1 mm 6 mps 765 mmHg 76%
    08:00 +10°C° 0 mm 5 mps 765 mmHg 72%
    09:00 +12°C° 0 mm 5 mps 765 mmHg 68%
    10:00 +13°C° 0 mm 5 mps 765 mmHg 63%
    11:00 +13°C° 0.1 mm 4 mps 765 mmHg 64%
    12:00 +14°C° 0.1 mm 4 mps 764 mmHg 64%
    13:00 +14°C° 0.1 mm 4 mps 764 mmHg 65%
    14:00 +14°C° 0.3 mm 4 mps 764 mmHg 67%
    15:00 +13°C° 0.3 mm 4 mps 763 mmHg 69%
    16:00 +13°C° 0.3 mm 4 mps 763 mmHg 71%
    17:00 +12°C° 0.8 mm 4 mps 763 mmHg 73%
    18:00 +12°C° 0.8 mm 4 mps 763 mmHg 75%
    19:00 +11°C° 0.8 mm 4 mps 763 mmHg 77%
    20:00 +11°C° 1 mm 4 mps 763 mmHg 77%
    21:00 +11°C° 1 mm 4 mps 763 mmHg 76%
    22:00 +11°C° 1 mm 3 mps 763 mmHg 76%
    23:00 +11°C° 1.2 mm 3 mps 762 mmHg 82%

    Day after tomorrow, 27 January, Monday

    Time Temperature Precipitation Wind Pressure Humidity
    00:00 +11°C° 1.2 mm 4 mps 762 mmHg 88%
    01:00 +10°C° 1.2 mm 4 mps 762 mmHg 93%
    02:00 +10°C° 0.7 mm 4 mps 762 mmHg 94%
    03:00 +10°C° 0.7 mm 4 mps 761 mmHg 94%
    04:00 +10°C° 0.7 mm 4 mps 761 mmHg 94%
    05:00 +9°C° 0.2 mm 5 mps 761 mmHg 92%
    06:00 +9°C° 0.2 mm 5 mps 761 mmHg 91%
    07:00 +9°C° 0.2 mm 6 mps 761 mmHg 89%
    08:00 +11°C° 0 mm 4 mps 761 mmHg 85%
    09:00 +11°C° 0 mm 3 mps 761 mmHg 81%
    10:00 +13°C° 0 mm 2 mps 761 mmHg 76%
    11:00 +13°C° 0 mm 2 mps 760 mmHg 74%
    12:00 +14°C° 0 mm 2 mps 760 mmHg 72%
    13:00 +14°C° 0 mm 2 mps 760 mmHg 70%
    14:00 +13°C° 0 mm 3 mps 760 mmHg 74%
    15:00 +12°C° 0 mm 3 mps 760 mmHg 77%
    16:00 +12°C° 0 mm 4 mps 760 mmHg 80%
    17:00 +10°C° 0.1 mm 5 mps 760 mmHg 83%
    18:00 +9°C° 0.1 mm 5 mps 761 mmHg 87%
    19:00 +8°C° 0.1 mm 6 mps 761 mmHg 90%
    20:00 +9°C° 0.1 mm 6 mps 761 mmHg 90%
    21:00 +9°C° 0.1 mm 6 mps 761 mmHg 90%
    22:00 +9°C° 0.1 mm 6 mps 761 mmHg 90%
    23:00 +9°C° 0.1 mm 5 mps 761 mmHg 90%

    28 January, Tuesday

    Time Temperature Precipitation Wind Pressure Humidity
    00:00 +9°C° 0.1 mm 5 mps 761 mmHg 90%
    01:00 +9°C° 0.1 mm 5 mps 761 mmHg 90%
    02:00 +10°C° 0.1 mm 4 mps 761 mmHg 90%
    03:00 +10°C° 0.1 mm 4 mps 761 mmHg 90%
    04:00 +9°C° 0.1 mm 3 mps 761 mmHg 91%
    05:00 +9°C° 0 mm 3 mps 761 mmHg 90%
    06:00 +9°C° 0 mm 2 mps 761 mmHg 90%
    07:00 +9°C° 0 mm 2 mps 761 mmHg 90%
    08:00 +10°C° 0 mm 2 mps 761 mmHg 85%
    09:00 +12°C° 0 mm 2 mps 761 mmHg 81%
    10:00 +13°C° 0 mm 2 mps 762 mmHg 76%
    11:00 +12°C° 0 mm 3 mps 761 mmHg 75%
    12:00 +12°C° 0 mm 4 mps 760 mmHg 73%
    13:00 +13°C° 0 mm 5 mps 760 mmHg 72%
    14:00 +13°C° 0 mm 6 mps 760 mmHg 73%
    15:00 +11°C° 0 mm 6 mps 759 mmHg 75%
    16:00 +11°C° 0 mm 6 mps 759 mmHg 77%
    17:00 +11°C° 0.1 mm 7 mps 759 mmHg 79%
    18:00 +10°C° 0.1 mm 8 mps 759 mmHg 82%
    19:00 +9°C° 0.1 mm 8 mps 759 mmHg 85%
    20:00 +8°C° 0.1 mm 9 mps 759 mmHg 83%
    21:00 +8°C° 0.1 mm 9 mps 759 mmHg 82%
    22:00 +8°C° 0.1 mm 9 mps 759 mmHg 80%
    23:00 +8°C° 0.1 mm 9 mps 759 mmHg 79%

    29 January, Wednesday

    Time Temperature Precipitation Wind Pressure Humidity
    00:00 +8°C° 0.1 mm 9 mps 759 mmHg 78%
    01:00 +8°C° 0.1 mm 9 mps 758 mmHg 77%
    02:00 +8°C° 0.6 mm 9 mps 758 mmHg 78%
    03:00 +8°C° 0.6 mm 9 mps 758 mmHg 79%
    04:00 +8°C° 0.6 mm 9 mps 758 mmHg 80%
    05:00 +9°C° 0.9 mm 8 mps 758 mmHg 81%
    06:00 +9°C° 0.9 mm 7 mps 758 mmHg 83%
    07:00 +9°C° 0.9 mm 6 mps 758 mmHg 84%
    08:00 +10°C° 0.1 mm 5 mps 758 mmHg 83%
    09:00 +12°C° 0.1 mm 4 mps 758 mmHg 82%
    10:00 +12°C° 0.1 mm 3 mps 759 mmHg 81%
    11:00 +13°C° 0.1 mm 3 mps 758 mmHg 76%
    12:00 +14°C° 0.1 mm 3 mps 758 mmHg 71%
    13:00 +16°C° 0.1 mm 3 mps 758 mmHg 67%
    14:00 +14°C° 0.1 mm 3 mps 758 mmHg 70%
    15:00 +14°C° 0.1 mm 3 mps 758 mmHg 73%
    16:00 +13°C° 0.1 mm 3 mps 758 mmHg 76%
    17:00 +12°C° 0 mm 3 mps 758 mmHg 77%
    18:00 +11°C° 0 mm 4 mps 758 mmHg 79%
    19:00 +10°C° 0 mm 5 mps 759 mmHg 81%
    20:00 +10°C° 0.6 mm 6 mps 759 mmHg 81%
    21:00 +10°C° 0.6 mm 7 mps 759 mmHg 82%
    22:00 +10°C° 0.6 mm 8 mps 759 mmHg 83%
    23:00 +10°C° 0.4 mm 8 mps 759 mmHg 81%

    30 January, Thursday

    Time Temperature Precipitation Wind Pressure Humidity
    00:00 +10°C° 0.4 mm 9 mps 758 mmHg 80%
    01:00 +10°C° 0.4 mm 9 mps 758 mmHg 79%
    02:00 +10°C° 0.3 mm 9 mps 758 mmHg 81%
    03:00 +8°C° 0.3 mm 9 mps 757 mmHg 83%
    04:00 +9°C° 0.3 mm 8 mps 757 mmHg 85%
    05:00 +9°C° 0.5 mm 8 mps 757 mmHg 85%
    06:00 +9°C° 0.5 mm 8 mps 758 mmHg 85%
    07:00 +9°C° 0.5 mm 8 mps 758 mmHg 85%
    08:00 +10°C° 0.3 mm 8 mps 759 mmHg 80%
    09:00 +11°C° 0.3 mm 8 mps 759 mmHg 75%
    10:00 +12°C° 0.3 mm 8 mps 760 mmHg 71%
    11:00 +12°C° 0.2 mm 8 mps 760 mmHg 69%
    12:00 +12°C° 0.2 mm 8 mps 761 mmHg 66%
    13:00 +12°C° 0.2 mm 8 mps 761 mmHg 64%
    14:00 +11°C° 0 mm 8 mps 761 mmHg 64%
    15:00 +11°C° 0 mm 8 mps 762 mmHg 63%
    16:00 +10°C° 0 mm 8 mps 762 mmHg 62%
    17:00 +9°C° 0 mm 7 mps 763 mmHg 63%
    18:00 +7°C° 0 mm 6 mps 764 mmHg 64%
    19:00 +6°C° 0 mm 5 mps 764 mmHg 65%
    20:00 +6°C° 0 mm 5 mps 765 mmHg 65%
    21:00 +5°C° 0 mm 5 mps 765 mmHg 64%
    22:00 +5°C° 0 mm 5 mps 766 mmHg 63%
    23:00 +3°C° 0 mm 5 mps 766 mmHg 62%
    Show more